Temp
-18 -18 -18 -18 -19 -19 -20 -20 -21 -22 -22 -23 -23 -23 -25 -27 -28 -29 -29 -29 -29 -29 -29 -29 -29 -29 -29 -29 -29 -30 -30 -30 -30 -29 -28 -27 -26 -25 -24 -23 -22 -21 -20
-18 -18 -18 -19 -19 -20 -20 -21 -22 -23 -23 -23 -23 -24 -27 -28 -29 -28 -28 -29 -29 -29 -29 -29 -29 -29 -29 -29 -29 -30 -30 -30 -30 -29 -28 -27 -26 -25 -24 -23 -22 -21 -20
-18 -18 -19 -19 -20 -20 -21 -22 -22 -23 -23 -23 -24 -25 -27 -28 -29 -28 -28 -28 -29 -29 -29 -29 -29 -29 -29 -29 -29 -29 -30 -30 -30 -29 -28 -27 -26 -25 -24 -23 -23 -22 -20
-18 -19 -19 -20 -20 -21 -21 -22 -23 -23 -23 -24 -24 -26 -28 -28 -28 -28 -28 -28 -28 -29 -29 -29 -29 -29 -29 -29 -29 -29 -30 -31 -30 -29 -28 -26 -26 -25 -24 -23 -23 -22 -21
-19 -19 -20 -20 -20 -21 -22 -23 -23 -24 -24 -24 -25 -27 -28 -28 -28 -28 -28 -29 -29 -29 -28 -28 -29 -29 -29 -29 -29 -30 -30 -31 -30 -29 -28 -26 -25 -25 -24 -23 -22 -21 -21
-19 -20 -20 -20 -21 -22 -23 -23 -24 -24 -24 -24 -26 -28 -28 -28 -28 -28 -28 -28 -28 -28 -28 -28 -29 -29 -29 -29 -30 -30 -31 -31 -30 -29 -28 -25 -25 -25 -24 -23 -22 -21 -20
-19 -20 -20 -21 -21 -22 -23 -24 -24 -24 -25 -25 -27 -28 -28 -28 -28 -28 -28 -28 -28 -28 -28 -29 -29 -29 -29 -29 -30 -31 -31 -31 -30 -29 -27 -25 -25 -24 -23 -23 -22 -21 -20
-20 -21 -21 -21 -22 -23 -24 -24 -25 -25 -25 -25 -27 -28 -28 -28 -28 -28 -28 -28 -28 -28 -28 -29 -29 -29 -29 -30 -30 -31 -32 -31 -30 -29 -27 -25 -25 -24 -23 -22 -22 -21 -20
-21 -21 -22 -22 -23 -23 -24 -25 -25 -25 -25 -26 -27 -28 -28 -28 -28 -28 -28 -28 -28 -28 -28 -29 -29 -29 -29 -30 -30 -31 -32 -31 -30 -28 -26 -25 -24 -24 -23 -22 -22 -21 -20
-21 -22 -22 -23 -23 -24 -24 -25 -25 -25 -26 -26 -27 -28 -28 -28 -28 -28 -29 -29 -29 -29 -29 -29 -29 -29 -29 -30 -30 -31 -32 -31 -29 -28 -25 -24 -24 -23 -23 -22 -21 -21 -20
-22 -23 -23 -23 -24 -24 -25 -25 -25 -25 -25 -26 -27 -28 -28 -29 -28 -28 -29 -29 -29 -29 -29 -29 -29 -29 -29 -30 -30 -31 -32 -30 -29 -27 -25 -24 -24 -23 -23 -22 -21 -21 -20
-23 -24 -24 -24 -24 -25 -25 -25 -26 -26 -26 -26 -27 -28 -28 -29 -28 -28 -28 -29 -29 -29 -28 -28 -28 -28 -29 -30 -30 -31 -31 -30 -28 -27 -25 -24 -23 -23 -22 -22 -21 -21 -20
-24 -24 -24 -24 -25 -25 -25 -26 -26 -26 -26 -26 -27 -28 -28 -28 -29 -28 -28 -28 -28 -28 -28 -28 -28 -28 -28 -29 -29 -30 -30 -29 -27 -26 -25 -24 -23 -23 -22 -22 -21 -20 -20
-24 -25 -25 -25 -25 -26 -26 -26 -26 -26 -27 -27 -27 -28 -28 -28 -29 -28 -28 -28 -28 -28 -28 -28 -28 -28 -28 -29 -29 -29 -29 -28 -27 -26 -25 -24 -23 -22 -22 -22 -21 -20 -20
-24 -25 -25 -25 -26 -26 -26 -26 -26 -27 -27 -27 -27 -28 -28 -28 -28 -28 -28 -28 -29 -28 -27 -27 -28 -28 -28 -28 -28 -29 -28 -27 -26 -25 -25 -24 -23 -23 -22 -22 -21 -21 -20
-25 -25 -26 -26 -26 -27 -27 -27 -27 -27 -27 -27 -27 -28 -28 -28 -28 -28 -28 -28 -28 -28 -28 -28 -28 -28 -28 -28 -28 -28 -27 -26 -26 -25 -25 -24 -24 -23 -22 -22 -21 -21 -21
-26 -26 -26 -27 -27 -27 -27 -27 -27 -27 -27 -27 -27 -28 -28 -28 -28 -28 -28 -28 -28 -28 -29 -28 -27 -27 -28 -28 -28 -27 -27 -26 -25 -25 -24 -24 -24 -23 -23 -22 -22 -21 -21
-26 -27 -27 -27 -27 -27 -27 -27 -28 -27 -27 -27 -27 -28 -28 -28 -28 -28 -28 -28 -29 -29 -29 -29 -28 -27 -27 -28 -27 -27 -27 -26 -25 -25 -24 -24 -24 -24 -23 -23 -22 -22 -21
-27 -27 -27 -27 -27 -28 -27 -28 -28 -28 -27 -27 -27 -27 -28 -28 -28 -28 -28 -28 -29 -29 -29 -28 -28 -27 -27 -27 -27 -27 -27 -26 -26 -25 -24 -24 -24 -23 -23 -23 -22 -22 -22
-27 -27 -28 -28 -28 -28 -28 -28 -28 -28 -28 -27 -27 -27 -28 -28 -28 -28 -28 -28 -28 -29 -28 -28 -28 -28 -27 -27 -27 -27 -27 -26 -26 -25 -25 -24 -24 -23 -23 -23 -23 -22 -22
-28 -28 -28 -28 -28 -28 -28 -28 -28 -28 -28 -28 -28 -27 -28 -28 -28 -28 -28 -28 -28 -28 -28 -28 -28 -28 -28 -27 -27 -27 -27 -26 -26 -25 -25 -24 -24 -23 -23 -23 -23 -22 -22
-28 -28 -28 -28 -28 -28 -28 -28 -28 -28 -28 -28 -28 -28 -28 -28 -28 -28 -29 -29 -28 -28 -28 -28 -28 -28 -28 -27 -27 -27 -26 -26 -26 -25 -25 -25 -24 -24 -23 -23 -23 -22 -22
-28 -28 -28 -29 -29 -28 -28 -28 -29 -29 -28 -28 -28 -28 -28 -28 -28 -28 -28 -29 -29 -28 -28 -28 -28 -28 -28 -28 -27 -27 -26 -26 -25 -25 -25 -24 -24 -24 -24 -24 -23 -23 -22
-29 -29 -29 -29 -29 -29 -29 -29 -29 -29 -29 -28 -28 -28 -28 -28 -28 -28 -28 -28 -29 -29 -28 -28 -28 -28 -28 -28 -28 -27 -27 -26 -25 -25 -25 -24 -24 -24 -24 -24 -23 -23 -23
-29 -29 -29 -29 -29 -29 -29 -29 -29 -29 -29 -29 -29 -28 -28 -28 -28 -28 -28 -28 -28 -29 -29 -29 -28 -28 -28 -28 -28 -28 -27 -27 -26 -25 -24 -24 -24 -24 -24 -23 -23 -23 -23
-29 -29 -29 -29 -29 -29 -29 -29 -29 -29 -29 -29 -29 -29 -28 -28 -28 -28 -28 -28 -28 -28 -28 -29 -29 -28 -28 -28 -28 -27 -28 -28 -27 -27 -25 -25 -24 -24 -24 -24 -24 -24 -23
Height
5670 5660 5650 5638 5628 5617 5607 5596 5583 5572 5561 5550 5537 5523 5508 5496 5484 5474 5463 5453 5445 5437 5429 5422 5416 5410 5404 5398 5393 5389 5387 5386 5387 5392 5399 5409 5420 5432 5446 5460 5473 5488 5504
5662 5653 5642 5631 5621 5610 5600 5588 5576 5567 5556 5545 5532 5517 5503 5491 5480 5470 5459 5450 5442 5435 5427 5419 5413 5405 5399 5393 5388 5384 5382 5381 5382 5387 5394 5404 5414 5427 5442 5456 5469 5484 5500
5655 5645 5635 5624 5614 5604 5594 5583 5572 5563 5552 5540 5527 5513 5501 5489 5477 5467 5457 5448 5441 5433 5425 5417 5409 5401 5395 5389 5384 5380 5377 5376 5378 5382 5390 5399 5410 5424 5439 5452 5466 5482 5497
5649 5639 5628 5618 5608 5598 5589 5579 5568 5558 5548 5536 5523 5509 5498 5486 5475 5465 5456 5447 5439 5431 5423 5414 5406 5398 5391 5384 5379 5375 5372 5371 5373 5378 5386 5396 5408 5422 5437 5451 5465 5480 5496
5642 5632 5622 5612 5603 5593 5583 5574 5565 5555 5544 5531 5519 5507 5495 5484 5473 5465 5455 5446 5437 5429 5421 5412 5402 5394 5387 5380 5375 5371 5368 5366 5368 5373 5381 5393 5407 5422 5437 5451 5466 5481 5496
5634 5625 5616 5607 5597 5587 5580 5571 5562 5552 5541 5528 5517 5505 5494 5482 5473 5464 5455 5445 5436 5427 5418 5408 5399 5391 5383 5377 5372 5367 5364 5362 5364 5369 5377 5391 5407 5423 5437 5452 5467 5483 5497
5627 5619 5610 5602 5592 5584 5576 5568 5559 5549 5539 5527 5515 5504 5493 5482 5472 5463 5453 5444 5435 5425 5415 5406 5397 5389 5382 5376 5369 5364 5360 5358 5360 5366 5375 5390 5407 5424 5438 5453 5469 5484 5498
5621 5612 5604 5597 5588 5581 5574 5565 5557 5547 5536 5525 5513 5503 5493 5482 5471 5462 5452 5442 5432 5422 5413 5404 5396 5389 5382 5375 5369 5363 5358 5356 5358 5363 5374 5391 5409 5426 5442 5457 5472 5486 5500
5614 5607 5599 5592 5585 5579 5572 5563 5554 5546 5535 5524 5513 5504 5493 5482 5471 5462 5452 5442 5433 5423 5413 5404 5396 5390 5383 5376 5370 5363 5358 5356 5358 5365 5378 5395 5412 5430 5446 5460 5474 5489 5503
5608 5602 5595 5588 5581 5576 5569 5562 5554 5546 5536 5524 5513 5504 5494 5483 5473 5464 5454 5445 5435 5424 5414 5405 5398 5392 5386 5379 5372 5366 5362 5360 5363 5370 5383 5401 5417 5435 5449 5464 5478 5492 5507
5603 5599 5592 5586 5579 5574 5567 5560 5552 5545 5535 5525 5514 5505 5495 5485 5476 5466 5457 5448 5438 5427 5418 5409 5401 5396 5390 5384 5377 5371 5368 5367 5370 5378 5391 5408 5424 5440 5455 5469 5483 5497 5510
5600 5595 5590 5583 5577 5571 5564 5558 5551 5543 5534 5524 5514 5505 5496 5487 5478 5468 5460 5451 5441 5431 5422 5413 5406 5401 5396 5390 5384 5380 5377 5376 5380 5388 5401 5416 5431 5447 5460 5474 5487 5500 5513
5596 5592 5586 5580 5574 5568 5562 5556 5550 5543 5534 5525 5514 5506 5497 5489 5479 5471 5464 5455 5446 5436 5426 5418 5412 5408 5403 5398 5394 5391 5388 5389 5394 5401 5413 5426 5440 5453 5466 5479 5492 5505 5516
5594 5589 5584 5578 5572 5566 5561 5555 5549 5543 5535 5526 5516 5507 5500 5492 5484 5478 5469 5459 5450 5440 5432 5424 5419 5415 5411 5407 5404 5402 5401 5403 5408 5414 5424 5435 5447 5460 5471 5482 5495 5508 5519
5591 5586 5581 5575 5570 5566 5560 5555 5549 5543 5537 5529 5520 5511 5503 5497 5490 5482 5474 5465 5455 5445 5437 5431 5426 5422 5419 5416 5414 5413 5413 5416 5420 5426 5434 5444 5454 5465 5476 5486 5498 5509 5520
5588 5583 5578 5574 5569 5565 5560 5555 5549 5543 5538 5531 5522 5514 5505 5498 5491 5484 5477 5469 5460 5451 5444 5439 5434 5430 5428 5426 5424 5424 5424 5427 5432 5437 5444 5452 5461 5471 5480 5491 5502 5512 5522
5585 5580 5576 5572 5568 5564 5560 5555 5549 5544 5538 5532 5525 5517 5508 5501 5495 5489 5482 5474 5463 5457 5454 5448 5442 5439 5436 5435 5434 5434 5434 5437 5441 5446 5452 5458 5465 5474 5484 5494 5503 5512 5523
5582 5578 5575 5571 5567 5564 5560 5555 5550 5545 5539 5534 5527 5520 5512 5503 5497 5492 5485 5475 5472 5468 5462 5455 5449 5446 5444 5443 5442 5442 5443 5445 5448 5453 5458 5464 5471 5478 5485 5494 5504 5513 5522
5579 5575 5573 5569 5566 5563 5559 5555 5550 5546 5541 5536 5530 5523 5516 5508 5501 5496 5490 5485 5480 5475 5469 5463 5457 5453 5451 5450 5450 5450 5450 5452 5454 5458 5463 5469 5474 5481 5488 5495 5503 5512 5521
5576 5574 5571 5568 5565 5562 5559 5555 5551 5547 5542 5537 5531 5526 5520 5512 5505 5500 5495 5491 5486 5481 5476 5471 5465 5461 5458 5457 5457 5457 5457 5459 5461 5464 5468 5473 5478 5484 5490 5497 5504 5512 5520
5574 5572 5569 5566 5564 5561 5558 5555 5551 5547 5543 5538 5533 5528 5523 5517 5512 5506 5500 5496 5492 5488 5484 5479 5474 5469 5466 5463 5462 5462 5463 5464 5467 5469 5473 5477 5482 5487 5492 5497 5503 5510 5517
5572 5570 5567 5565 5563 5561 5558 5555 5552 5548 5545 5540 5536 5531 5527 5522 5517 5512 5507 5502 5497 5493 5490 5486 5481 5477 5473 5471 5468 5467 5468 5470 5472 5475 5478 5482 5486 5490 5495 5499 5505 5510 5516
5570 5568 5566 5564 5562 5560 5558 5555 5553 5549 5546 5542 5538 5534 5530 5525 5521 5517 5513 5509 5504 5499 5496 5493 5489 5485 5482 5479 5476 5475 5475 5477 5479 5481 5483 5486 5489 5493 5497 5501 5504 5509 5515
5568 5566 5564 5563 5561 5560 5557 5555 5553 5550 5547 5544 5540 5537 5533 5529 5525 5521 5518 5514 5511 5506 5502 5498 5496 5492 5490 5487 5484 5483 5483 5484 5485 5487 5488 5491 5492 5495 5497 5501 5505 5509 5513
5566 5564 5563 5561 5560 5559 5557 5555 5553 5551 5548 5545 5542 5539 5536 5532 5528 5525 5522 5519 5516 5513 5509 5505 5502 5500 5497 5496 5493 5491 5491 5490 5490 5491 5492 5493 5495 5496 5497 5500 5503 5506 5510
5564 5563 5561 5560 5558 5557 5556 5555 5553 5551 5548 5546 5543 5541 5538 5535 5532 5528 5525 5523 5520 5518 5515 5512 5509 5506 5504 5502 5500 5499 5498 5497 5496 5496 5496 5496 5497 5498 5500 5501 5502 5504 5507
Wind_Speed
48 53 56 53 52 52 55 57 51 52 54 57 61 63 57 52 53 53 45 39 37 35 34 34 33 29 27 23 20 17 15 13 18 19 38 53 57 59 58 61 66 73 80
49 52 52 50 51 52 55 50 48 51 54 57 61 59 52 52 52 46 41 38 36 35 34 34 34 31 27 22 19 17 14 12 18 20 37 54 59 59 58 60 65 71 79
50 52 52 50 50 52 52 46 48 51 53 56 59 54 51 50 47 43 40 38 36 35 35 33 31 31 26 21 19 17 13 12 17 21 34 56 60 59 59 60 63 69 75
50 52 49 49 51 50 45 44 47 49 51 55 55 51 49 48 43 41 40 38 36 35 34 32 31 28 24 22 20 17 12 11 17 24 35 58 61 60 59 59 62 67 72
52 51 48 49 47 45 40 43 45 48 51 54 51 48 49 45 41 40 39 37 36 36 33 31 29 27 23 22 21 17 12 10 16 24 37 60 62 61 59 58 61 65 70
51 46 48 47 44 40 39 41 44 47 51 53 47 45 46 43 41 40 37 36 37 36 34 33 30 28 24 23 21 16 11 9 15 24 40 62 62 61 59 57 60 62 68
46 44 45 43 42 37 37 39 42 45 49 51 43 43 45 41 41 40 38 38 38 37 36 35 31 27 25 24 22 17 12 6 14 25 44 62 63 62 59 57 59 60 65
43 42 42 41 38 34 36 37 40 45 48 50 40 40 42 40 40 41 41 41 42 41 38 37 32 26 23 23 21 17 12 2 15 29 50 63 62 62 58 57 57 57 60
40 40 39 38 35 34 34 36 38 43 47 48 37 38 41 40 41 42 43 43 43 41 39 36 29 24 22 22 20 17 11 4 17 34 54 62 62 62 58 57 56 55 57
38 37 37 35 33 32 32 33 37 41 44 46 36 37 40 41 41 41 40 40 40 38 36 32 26 21 21 22 21 18 12 9 21 40 58 61 61 61 58 58 57 56 55
35 36 36 33 32 31 30 31 35 39 43 45 36 36 40 40 40 39 38 37 37 35 33 29 23 20 22 22 22 21 14 13 27 46 59 60 61 59 57 57 58 54 51
33 34 33 33 31 30 29 30 33 38 43 46 40 34 38 40 41 40 39 36 35 33 29 26 22 20 23 23 23 21 16 19 34 52 59 57 59 58 54 55 56 53 50
32 31 31 31 30 28 28 29 31 35 40 44 44 33 35 39 42 41 38 34 33 32 29 27 22 20 22 22 23 20 19 25 40 52 55 54 56 55 54 55 55 54 50
31 29 29 31 29 27 27 28 29 32 36 41 43 34 31 35 38 38 36 34 33 32 30 28 22 21 21 22 23 21 20 28 39 49 50 50 52 54 53 54 55 55 53
31 28 28 28 28 26 26 27 27 29 32 36 40 36 27 29 31 36 35 33 34 34 31 27 23 20 22 22 22 19 21 28 37 43 45 46 49 52 52 53 53 53 53
30 27 25 24 24 24 25 25 26 27 30 33 37 39 26 28 31 34 37 35 37 37 35 27 23 20 21 20 20 18 20 27 33 38 40 42 45 48 49 49 50 50 50
28 25 23 22 22 23 24 25 26 27 27 29 33 37 33 25 27 30 35 37 39 38 33 28 22 20 19 17 18 18 18 24 29 34 37 38 40 43 45 47 46 47 48
27 24 22 21 19 20 22 24 26 26 26 27 29 33 36 31 26 28 33 41 38 34 32 28 23 20 19 18 18 16 16 19 25 29 32 34 36 39 41 42 44 45 44
26 23 21 19 18 18 20 22 24 24 24 25 26 29 33 34 27 26 29 31 33 33 32 30 25 21 18 16 18 16 15 17 21 26 29 31 33 35 37 39 40 42 44
23 21 19 18 16 17 18 20 22 23 23 24 25 26 29 33 35 29 26 26 29 31 30 29 29 26 21 17 15 16 13 15 19 23 26 29 30 32 35 38 40 41 42
21 19 18 17 16 16 17 18 20 21 22 22 24 25 25 28 31 33 28 25 25 28 28 27 27 27 25 22 18 15 15 14 18 20 23 25 28 30 31 33 36 40 42
19 18 17 16 15 14 15 17 18 19 20 21 21 23 24 23 26 29 31 28 25 24 27 27 26 26 26 26 23 20 17 16 16 19 20 22 23 25 27 30 33 36 39
17 17 16 16 14 13 14 15 16 18 19 19 20 20 21 23 22 24 27 29 28 24 23 25 26 26 25 26 26 26 23 18 15 15 17 19 20 21 21 23 28 33 37
16 15 15 15 13 12 12 13 15 16 17 18 18 19 19 20 21 22 22 23 26 27 24 22 23 25 25 23 24 23 22 22 21 17 15 14 14 15 17 20 23 28 31
15 15 15 14 12 11 11 11 13 14 15 15 16 17 19 19 18 20 20 21 20 22 24 24 21 20 23 24 21 22 18 17 16 16 16 15 14 13 14 17 20 23 27
17 16 16 14 12 12 11 11 11 13 13 14 14 14 16 17 18 17 17 18 19 19 19 20 21 20 18 18 21 20 20 18 16 13 12 13 14 13 14 14 13 14 20
Wind_Direction
316 324 327 326 325 325 326 327 330 334 337 338 337 337 338 340 339 339 343 345 343 342 339 337 337 334 333 328 321 306 291 261 241 205 193 192 195 196 193 192 193 193 193
319 324 325 324 326 326 327 329 333 337 339 340 338 339 342 343 342 343 346 346 345 342 340 338 339 337 337 331 324 316 290 265 235 207 190 192 194 195 192 191 192 193 192
319 323 323 324 325 327 329 334 337 339 341 341 341 342 344 345 346 346 347 346 345 343 342 340 338 337 339 334 329 325 296 266 231 208 187 191 193 194 191 189 192 192 192
323 324 324 326 328 330 332 335 339 341 342 343 343 344 347 349 350 348 347 345 344 343 343 342 340 341 343 339 333 329 306 269 228 206 186 189 191 192 190 188 191 191 191
326 325 326 329 330 333 334 337 340 343 343 346 344 347 350 351 352 350 348 347 347 346 348 348 346 345 349 345 339 331 306 271 223 201 184 187 190 190 189 187 189 189 190
328 327 329 329 333 334 335 340 343 345 346 347 345 350 352 352 353 352 351 352 350 350 353 353 354 351 353 351 345 337 321 272 218 194 181 185 187 188 188 186 187 187 190
327 330 331 332 335 334 338 341 345 347 347 348 347 352 353 353 356 354 353 355 354 354 357 355 357 355 355 355 351 345 337 272 204 184 177 181 183 185 185 183 185 186 189
329 331 333 334 334 334 337 342 347 348 349 349 350 354 355 357 358 355 356 356 356 356 357 356 360 359 358 1 1 356 348 252 181 174 172 177 180 182 182 181 183 183 186
331 332 334 335 334 335 337 344 349 350 350 351 351 356 359 2 3 359 359 356 354 357 356 355 1 4 7 9 12 12 12 119 159 165 166 173 177 178 180 179 180 180 182
333 332 335 335 334 333 338 343 348 351 351 352 353 358 2 5 5 2 0 357 357 357 355 358 7 13 17 20 24 26 39 114 150 158 161 169 174 176 177 177 177 176 175
335 333 336 334 334 333 338 342 347 349 352 356 356 359 4 6 7 5 3 2 2 1 1 7 17 28 27 29 36 37 52 114 146 152 155 165 171 174 176 175 176 176 177
334 334 335 335 335 334 340 342 346 350 353 357 358 359 4 6 9 9 5 7 7 10 12 23 29 34 34 41 45 48 70 120 141 148 152 161 167 172 173 173 176 177 177
333 333 334 335 336 337 341 343 346 350 354 357 359 359 2 6 11 9 7 10 14 17 20 30 37 40 39 52 54 57 87 124 141 145 151 159 166 170 172 171 172 175 176
333 331 333 336 337 341 343 346 347 349 355 359 360 358 1 7 10 10 10 15 19 23 26 33 41 49 51 63 63 66 98 128 141 145 151 157 164 168 171 171 172 175 176
330 330 332 336 339 343 346 349 348 349 353 358 2 1 360 5 11 15 17 20 24 28 31 31 39 56 57 70 69 76 110 134 143 147 152 158 164 170 172 173 174 174 176
329 328 329 333 341 348 350 350 351 352 352 356 3 5 1 7 12 16 19 24 29 31 31 30 38 57 61 71 77 82 117 138 146 150 154 159 164 171 174 175 177 177 178
329 327 327 332 344 350 352 353 354 356 355 356 3 6 7 9 13 18 20 25 29 31 29 36 46 53 60 70 85 90 111 140 150 154 157 162 166 170 176 178 180 181 183
329 329 326 330 342 350 352 354 355 356 358 359 3 7 11 14 13 17 23 28 27 26 32 38 52 59 63 82 87 94 111 132 150 155 159 164 168 173 176 180 184 186 187
330 331 327 329 339 348 351 354 356 357 0 2 5 8 14 19 17 20 25 28 29 28 31 39 51 63 70 84 94 88 114 129 145 156 162 166 170 174 178 182 185 187 192
329 330 327 327 335 344 349 353 356 358 1 4 8 10 13 19 23 24 26 29 31 32 34 35 46 57 67 80 98 104 102 133 141 152 162 167 171 176 178 182 186 189 191
328 329 327 325 332 342 347 351 354 357 3 6 9 13 14 19 22 25 28 29 34 36 38 38 44 51 58 72 92 102 114 126 142 146 156 166 173 176 180 184 187 190 191
328 327 326 325 332 341 344 349 350 356 4 9 10 14 16 19 23 25 29 31 33 37 40 42 44 50 55 58 73 96 109 120 143 146 148 155 164 171 180 186 189 192 195
325 325 324 325 332 337 341 346 348 354 2 10 12 16 17 21 24 24 28 32 35 38 41 44 45 51 55 62 66 79 96 110 123 149 162 163 166 171 176 183 191 194 197
326 322 321 323 328 331 335 341 345 350 358 8 13 17 18 20 24 27 27 30 34 38 42 44 46 46 55 59 63 64 73 87 105 123 140 159 177 187 191 193 193 197 200
322 318 319 318 318 320 324 334 336 345 354 2 10 15 20 21 22 27 29 31 32 35 39 45 48 50 48 58 67 72 70 74 76 88 103 116 145 161 176 184 195 205 209
322 318 317 314 313 313 312 320 326 334 345 355 2 8 17 22 23 23 26 30 33 34 37 40 45 49 53 53 58 69 75 73 79 82 91 95 90 99 118 140 170 185 190